Hobbs, NM

1:13 AM MST on February 27, 2017 (GMT -0700)
Lea County Regional

Weather History for KHOB - September, 2012

Change the Weather History Date:

Monday, September 3, 2012

  Actual Average Record
Temperature  
Mean Temperature 80 °F -  
Max Temperature 95 °F 89 °F 100 °F (2000)
Min Temperature 66 °F 62 °F 55 °F (2007)
Cooling Degree Days 16    
Growing Degree Days 30 (Base 50)    
Moisture  
Dew Point 56 °F    
Average Humidity 44    
Maximum Humidity 78    
Minimum Humidity 20    
Precipitation  
Precipitation 0.00 in - - ()
Sea Level Pressure  
Sea Level Pressure 30.03 in    
Wind  
Wind Speed 7 mph (SE)    
Max Wind Speed 10 mph    
Max Gust Speed -    
Visibility 10 miles    
Events      
Averages and records for this station are not official NWS values.
T = Trace of Precipitation, MM = Missing Value Source: NWS Daily Summary

Daily Weather History Graph

Daily Weather History Graph

Search for Another Location

Airport or City:

Trip Planner

Search our weather history database for the weather conditions in past years. The results will help you decide how hot, cold, wet, or windy it might be!

Date:

Astronomy

Sep. 03, 2012 Rise Set
Actual Time 6:29 AM MDT 7:14 PM MDT
Civil Twilight 6:04 AM MDT 7:39 PM MDT
Nautical Twilight 5:34 AM MDT 8:08 PM MDT
Astronomical Twilight 5:04 AM MDT 8:38 PM MDT
Moon 8:50 PM MDT (9/3) 9:25 AM MDT (9/3)
Length of Visible Light 13h 34m
Length of Day
12h 44m
Waning Gibbous, 90% of the Moon is Illuminated
Sep 3
Waning Gibbous
Sep 8
Last Quarter
Sep 15
New
Sep 22
First Quarter
Sep 29
Full

Hourly Weather History & Observations

Time (MDT) Temp. Heat Index Dew Point Humidity Pressure Visibility Wind Dir Wind Speed Gust Speed Precip Events Conditions
12:15 AM 77.0 °F - 59.0 °F 54% 30.07 in 10.0 mi SSE 10.4 mph - N/A   Clear
12:35 AM 77.0 °F - 59.0 °F 54% 30.07 in 10.0 mi SSE 10.4 mph - N/A   Clear
12:55 AM 77.0 °F - 59.0 °F 54% 30.06 in 10.0 mi SSE 8.1 mph - N/A   Clear
1:15 AM 75.2 °F - 59.0 °F 57% 30.06 in 10.0 mi SSE 5.8 mph - N/A   Clear
1:35 AM 75.2 °F - 59.0 °F 57% 30.06 in 10.0 mi SSE 6.9 mph - N/A   Clear
1:55 AM 73.4 °F - 59.0 °F 61% 30.06 in 10.0 mi SE 5.8 mph - N/A   Clear
2:15 AM 73.4 °F - 59.0 °F 61% 30.06 in 10.0 mi SE 6.9 mph - N/A   Clear
2:35 AM 73.4 °F - 59.0 °F 61% 30.05 in 10.0 mi SE 5.8 mph - N/A   Clear
3:15 AM 73.4 °F - 59.0 °F 61% 30.05 in 10.0 mi SE 5.8 mph - N/A   Clear
3:35 AM 71.6 °F - 59.0 °F 64% 30.05 in 10.0 mi SE 5.8 mph - N/A   Clear
3:55 AM 71.6 °F - 59.0 °F 64% 30.05 in 10.0 mi SE 6.9 mph - N/A   Clear
4:15 AM 71.6 °F - 59.0 °F 64% 30.04 in 10.0 mi SE 5.8 mph - N/A   Clear
4:35 AM 71.6 °F - 59.0 °F 64% 30.05 in 10.0 mi ESE 4.6 mph - N/A   Clear
4:55 AM 69.8 °F - 59.0 °F 68% 30.05 in 10.0 mi ESE 4.6 mph - N/A   Clear
5:50 AM 68.0 °F - 59.0 °F 73% 30.06 in 10.0 mi East 4.6 mph - N/A   Clear
6:50 AM 66.2 °F - 59.0 °F 78% 30.07 in 10.0 mi East 4.6 mph - N/A   Clear
7:50 AM 73.4 °F - 60.8 °F 65% 30.08 in 10.0 mi ESE 6.9 mph - N/A   Clear
8:50 AM 80.6 °F 81.8 °F 62.6 °F 54% 30.09 in 10.0 mi SE 9.2 mph - N/A   Clear
9:45 AM 82.4 °F 82.9 °F 60.8 °F 48% 30.09 in 10.0 mi SSE 6.9 mph - N/A   Clear
10:45 AM 87.8 °F 87.1 °F 59.0 °F 38% 30.08 in 10.0 mi SSE 8.1 mph - N/A   Clear
11:50 AM 91.4 °F 89.4 °F 55.4 °F 29% 30.07 in 10.0 mi SSE 6.9 mph - N/A   Clear
12:50 PM 93.2 °F - 51.8 °F 24% 30.05 in 10.0 mi SSE 4.6 mph - N/A   Scattered Clouds
1:45 PM 95.0 °F - 50.0 °F 22% 30.03 in 10.0 mi Calm Calm - N/A   Scattered Clouds
2:45 PM 95.0 °F - 48.2 °F 20% 29.99 in 10.0 mi East 5.8 mph - N/A   Scattered Clouds
3:45 PM 95.0 °F - 48.2 °F 20% 29.98 in 10.0 mi NW 3.5 mph - N/A   Scattered Clouds
4:58 PM 95.0 °F - 48.2 °F 20% 29.96 in 10.0 mi NE 8.1 mph - N/A   Scattered Clouds
5:50 PM 95.0 °F - 50.0 °F 22% 29.96 in 10.0 mi ENE 10.4 mph - N/A   Partly Cloudy
6:15 PM 95.0 °F - 50.0 °F 22% 29.96 in 10.0 mi ENE 10.4 mph - N/A   Clear
6:35 PM 93.2 °F - 50.0 °F 23% 29.96 in 10.0 mi East 9.2 mph - N/A   Clear
6:55 PM 91.4 °F - 50.0 °F 24% 29.96 in 10.0 mi East 6.9 mph - N/A   Clear
7:15 PM 91.4 °F - 50.0 °F 24% 29.97 in 10.0 mi East 8.1 mph - N/A   Clear
7:35 PM 87.8 °F - 50.0 °F 27% 29.98 in 10.0 mi East 6.9 mph - N/A   Clear
7:55 PM 84.2 °F - 51.8 °F 33% 29.98 in 10.0 mi ENE 6.9 mph - N/A   Clear
8:15 PM 82.4 °F - 51.8 °F 35% 29.99 in 10.0 mi ENE 6.9 mph - N/A   Clear
8:35 PM 82.4 °F - 51.8 °F 35% 30.00 in 10.0 mi ENE 6.9 mph - N/A   Clear
8:55 PM 80.6 °F - 51.8 °F 37% 30.01 in 10.0 mi SE 8.1 mph - N/A   Clear
9:15 PM 84.2 °F 82.8 °F 53.6 °F 35% 30.02 in 10.0 mi SE 8.1 mph - N/A   Clear
9:35 PM 84.2 °F 83.0 °F 55.4 °F 37% 30.02 in 10.0 mi SE 8.1 mph - N/A   Clear
9:55 PM 84.2 °F 83.0 °F 55.4 °F 37% 30.02 in 10.0 mi SSE 6.9 mph - N/A   Clear
10:15 PM 82.4 °F 81.7 °F 55.4 °F 39% 30.02 in 10.0 mi SSE 6.9 mph - N/A   Clear
10:35 PM 82.4 °F 81.7 °F 55.4 °F 39% 30.03 in 10.0 mi SE 8.1 mph - N/A   Clear
10:55 PM 80.6 °F 80.5 °F 55.4 °F 42% 30.03 in 10.0 mi ESE 8.1 mph - N/A   Clear
11:15 PM 80.6 °F 80.8 °F 57.2 °F 45% 30.03 in 10.0 mi SE 6.9 mph - N/A   Clear
11:35 PM 80.6 °F 80.8 °F 57.2 °F 45% 30.03 in 10.0 mi SSE 5.8 mph - N/A   Clear
11:55 PM 77.0 °F - 57.2 °F 50% 30.03 in 10.0 mi SSE 5.8 mph - N/A   Clear